DW0841 Weather Reports


Display with metric or nautical units.
time (UTC)temp
F
wind
direction
speed
MPH
gust
MPH
rain 1hr
in
rain 24hr
in
rain mn
in
humidity
%
barometer
mb
20260508043717 55 225 2.0 5.0 0.00 0.12 0.03 76 1013.3
20260508042716 55 180 2.0 4.0 0.00 0.12 0.03 76 1013.2
20260508041716 55 203 2.0 3.0 0.00 0.12 0.03 74 1013.1
20260508040717 55 203 1.0 3.0 0.00 0.12 0.03 74 1013.0
20260508035716 55 203 3.0 4.0 0.00 0.12 0.03 73 1012.9
20260508034716 56 270 3.0 4.0 0.00 0.12 0.03 72 1012.8
20260508033717 56 225 2.0 3.0 0.00 0.12 0.03 70 1013.0
20260508032716 56 158 3.0 7.0 0.00 0.12 0.03 71 1012.9
20260508031716 56 203 3.0 6.0 0.00 0.12 0.03 71 1013.0
20260508030757 55 180 2.0 4.0 0.00 0.12 0.03 71 1012.8
20260508025717 55 225 2.0 3.0 0.00 0.12 0.03 73 1012.9
20260508024717 55 203 5.0 7.0 0.00 0.12 0.03 71 1012.7
20260508023737 55 180 3.0 7.0 0.00 0.12 0.03 72 1012.7
20260508022717 55 203 7.0 11.0 0.00 0.12 0.03 70 1012.8
20260508021716 55 180 3.0 5.0 0.00 0.12 0.03 69 1012.6
20260508020717 55 180 6.0 11.0 0.00 0.12 0.03 69 1012.5
20260508015716 55 203 3.0 7.0 0.00 0.12 0.03 69 1012.6
20260508014716 55 180 4.0 6.0 0.00 0.12 0.03 67 1012.5
20260508013716 55 135 3.0 9.0 0.00 0.12 0.03 69 1012.5
20260508012716 55 203 4.0 9.0 0.00 0.12 0.03 70 1012.3
20260508011737 54 203 3.0 7.0 0.00 0.12 0.03 72 1012.3
20260508010717 53 180 6.0 12.0 0.00 0.12 0.03 73 1012.3
20260508005716 53 203 5.0 10.0 0.00 0.12 0.03 73 1012.1
20260508004716 53 248 6.0 9.0 0.00 0.12 0.03 73 1012.0
20260508003736 53 225 4.0 8.0 0.00 0.12 0.03 74 1011.9
20260508002716 52 203 2.0 4.0 0.00 0.12 0.03 74 1011.7
20260508001716 52 180 4.0 9.0 0.00 0.12 0.03 75 1011.6
20260508000716 52 225 3.0 5.0 0.00 0.12 0.03 75 1011.4
20260507235716 51 225 5.0 7.0 0.00 0.12 0.03 77 1011.3
20260507234716 51 180 4.0 6.0 0.00 0.12 0.03 77 1011.4
20260507233737 51 158 2.0 5.0 0.00 0.12 0.03 77 1011.4
20260507232736 51 135 3.0 5.0 0.00 0.12 0.03 78 1011.1
20260507231716 51 203 4.0 7.0 0.00 0.12 0.03 78 1010.8
20260507230717 51 135 4.0 12.0 0.00 0.12 0.03 77 1010.6
20260507225716 51 158 3.0 6.0 0.00 0.12 0.03 79 1010.6
20260507224716 50 180 4.0 9.0 0.00 0.12 0.03 80 1010.5
20260507223716 49 180 2.0 5.0 0.00 0.12 0.03 83 1010.4
20260507222717 49 180 1.0 3.0 0.00 0.12 0.03 83 1010.2
20260507221716 49 180 2.0 3.0 0.00 0.12 0.03 84 1010.2
20260507220716 49 180 2.0 6.0 0.00 0.12 0.03 85 1010.0
20260507215736 49 203 3.0 6.0 0.00 0.12 0.03 85 1009.7
20260507214716 48 180 3.0 4.0 0.00 0.12 0.03 86 1009.5
20260507213716 48 158 3.0 9.0 0.00 0.12 0.03 86 1009.3
20260507212716 48 180 3.0 6.0 0.00 0.12 0.03 85 1009.2
20260507211716 49 180 2.0 4.0 0.00 0.12 0.03 85 1009.0
20260507210716 48 180 3.0 9.0 0.00 0.12 0.03 86 1008.7
20260507205717 48 113 1.0 3.0 0.01 0.12 0.03 86 1008.7
20260507204716 48 0.0 1.0 0.02 0.12 0.03 87 1008.6
20260507203716 48 180 1.0 3.0 0.02 0.12 0.03 87 1008.6
20260507202716 48 180 3.0 6.0 0.02 0.12 0.03 88 1008.4
20260507201716 48 203 2.0 5.0 0.02 0.12 0.03 88 1008.2
20260507200716 48 135 2.0 3.0 0.02 0.12 0.03 88 1008.2
20260507195736 48 0.0 2.0 0.01 0.11 0.02 87 1007.9
20260507194737 49 113 2.0 4.0 0.00 0.10 0.02 86 1007.5
20260507193716 49 113 1.0 3.0 0.00 0.10 0.02 86 1007.4
20260507192716 49 248 1.0 4.0 0.00 0.10 0.02 85 1007.4
20260507191716 49 203 2.0 3.0 0.00 0.10 0.02 85 1007.1
20260507190717 49 135 3.0 4.0 0.00 0.10 0.02 84 1007.1
20260507185716 50 180 3.0 6.0 0.00 0.10 0.02 81 1006.6
20260507184716 50 203 3.0 5.0 0.00 0.10 0.02 81 1006.4
20260507183716 50 203 4.0 10.0 0.00 0.10 0.02 81 1006.2
20260507182716 50 158 2.0 3.0 0.00 0.10 0.02 81 1006.1
20260507181716 50 158 3.0 5.0 0.00 0.11 0.02 81 1005.9
20260507180716 50 270 3.0 5.0 0.00 0.11 0.02 82 1005.6
20260507175716 50 248 2.0 2.0 0.00 0.11 0.02 82 1005.3
20260507174718 49 203 5.0 8.0 0.00 0.11 0.02 83 1005.2
20260507173718 50 180 2.0 3.0 0.01 0.11 0.02 83 1005.1
20260507172718 50 203 2.0 4.0 0.01 0.11 0.02 84 1005.1
20260507171718 49 158 1.0 3.0 0.01 0.11 0.02 85 1005.0
20260507170738 49 180 2.0 3.0 0.01 0.11 0.02 85 1004.7
20260507165718 50 270 2.0 3.0 0.01 0.11 0.02 85 1004.7
20260507164718 50 180 3.0 5.0 0.01 0.11 0.02 85 1004.7
20260507163718 50 180 2.0 7.0 0.01 0.10 0.01 85 1004.4
20260507162718 50 203 7.0 12.0 0.01 0.10 0.01 86 1004.4
20260507161818 50 180 3.0 6.0 0.01 0.10 0.01 87 1003.9
20260507160718 50 203 2.0 9.0 0.01 0.10 0.01 88 1004.2
20260507155718 50 180 3.0 6.0 0.01 0.10 0.01 88 1004.2
20260507154718 50 180 6.0 11.0 0.01 0.11 0.01 88 1004.0
20260507153718 51 180 3.0 5.0 0.00 0.10 0.00 87 1004.0
20260507152718 51 248 2.0 4.0 0.00 0.10 0.00 86 1003.9
20260507151718 51 180 2.0 5.0 0.00 0.10 0.00 86 1003.9
20260507150718 50 158 5.0 9.0 0.00 0.10 0.00 87 1003.5
20260507145718 50 0.0 1.0 0.00 0.10 0.00 88 1003.4
20260507144718 50 135 2.0 6.0 0.00 0.10 0.00 89 1003.3
20260507143718 50 113 2.0 4.0 0.00 0.10 0.00 90 1003.2
20260507142718 50 135 1.0 6.0 0.00 0.10 0.00 90 1003.2
20260507141718 50 248 2.0 5.0 0.00 0.10 0.00 91 1003.3
20260507140718 50 0.0 1.0 0.00 0.11 0.00 91 1003.3
20260507135717 50 158 2.0 4.0 0.00 0.11 0.11 91 1003.1
20260507134717 50 158 2.0 3.0 0.02 0.11 0.11 91 1003.1
20260507133718 50 0.0 0.0 0.02 0.11 0.11 91 1003.1
20260507132717 50 135 3.0 7.0 0.03 0.11 0.11 91 1002.9
20260507131717 50 0.0 3.0 0.03 0.11 0.11 91 1002.8
20260507130718 50 135 1.0 3.0 0.03 0.11 0.11 91 1003.1
20260507125717 50 0.0 1.0 0.03 0.11 0.11 91 1003.1
20260507124740 50 68 1.0 3.0 0.03 0.09 0.09 91 1003.0
20260507123717 50 45 2.0 4.0 0.04 0.09 0.09 91 1002.8
20260507122718 49 0.0 0.0 0.03 0.08 0.08 91 1002.9
20260507121717 50 90 1.0 2.0 0.03 0.08 0.08 90 1002.8
20260507120717 50 0.0 1.0 0.05 0.08 0.08 90 1002.8
20260507115717 50 45 1.0 4.0 0.06 0.08 0.08 90 1002.8
20260507114717 49 0.0 0.0 0.04 0.06 0.06 90 1002.9
20260507113717 49 90 1.0 2.0 0.03 0.06 0.06 89 1002.5
20260507112717 49 68 2.0 2.0 0.02 0.05 0.05 88 1002.6
20260507111717 50 90 1.0 2.0 0.02 0.05 0.05 87 1002.3
20260507110717 49 45 2.0 3.0 0.01 0.03 0.03 84 1002.6
20260507105737 48 0.0 1.0 0.00 0.02 0.02 83 1002.6
20260507104738 48 90 2.0 4.0 0.00 0.02 0.02 83 1002.3
20260507103737 47 113 3.0 6.0 0.00 0.02 0.02 84 1002.4
20260507102717 47 113 1.0 2.0 0.00 0.02 0.02 83 1002.3
20260507101718 47 45 1.0 2.0 0.00 0.02 0.02 82 1002.0
20260507100717 46 135 4.0 9.0 0.00 0.02 0.02 79 1002.3
20260507095717 47 225 2.0 3.0 0.00 0.02 0.02 79 1001.9
20260507094717 45 315 2.0 4.0 0.00 0.02 0.02 80 1002.2
20260507093718 45 0 2.0 3.0 0.00 0.02 0.02 79 1002.5
20260507092717 46 338 1.0 1.0 0.00 0.02 0.02 78 1002.9
20260507091717 46 0 2.0 5.0 0.00 0.02 0.02 77 1003.0
20260507090717 46 23 2.0 9.0 0.00 0.02 0.02 76 1003.4
20260507085717 47 270 5.0 8.0 0.00 0.02 0.02 75 1003.9
20260507084717 47 0 4.0 8.0 0.00 0.02 0.02 74 1004.1
20260507083717 48 0 4.0 6.0 0.00 0.02 0.02 72 1004.4
20260507082717 47 338 2.0 4.0 0.00 0.02 0.02 73 1004.4
20260507081717 47 338 1.0 2.0 0.00 0.02 0.02 73 1004.6
20260507080717 47 338 2.0 4.0 0.00 0.02 0.02 72 1004.9
20260507075718 47 23 4.0 6.0 0.00 0.02 0.02 72 1005.0
20260507074717 47 23 2.0 4.0 0.00 0.02 0.02 72 1004.8
20260507073717 47 338 3.0 5.0 0.00 0.04 0.02 71 1005.2
20260507072717 47 0 3.0 4.0 0.00 0.04 0.02 70 1005.6
20260507071717 47 23 3.0 4.0 0.00 0.06 0.02 69 1005.8
20260507070717 47 315 2.0 3.0 0.00 0.07 0.02 69 1006.0
20260507065717 48 338 1.0 2.0 0.00 0.08 0.02 68 1006.4
20260507064717 48 338 1.0 3.0 0.00 0.09 0.02 68 1006.7
20260507063717 48 338 1.0 3.0 0.00 0.10 0.02 66 1006.9
20260507062717 49 315 2.0 4.0 0.00 0.11 0.02 65 1007.0
20260507061717 49 90 1.0 2.0 0.00 0.11 0.02 63 1007.0
20260507060717 49 0.0 1.0 0.00 0.11 0.02 64 1007.4
20260507055717 49 338 1.0 2.0 0.00 0.11 0.02 63 1007.6
20260507054718 48 315 1.0 2.0 0.00 0.11 0.02 64 1007.6
20260507053717 48 270 1.0 2.0 0.00 0.11 0.02 65 1007.8
20260507052717 48 293 1.0 2.0 0.00 0.11 0.02 66 1008.0
20260507051717 48 315 1.0 2.0 0.00 0.11 0.02 66 1008.1
20260507050717 48 225 1.0 2.0 0.00 0.11 0.02 62 1008.2
20260507045717 49 225 2.0 3.0 0.00 0.11 0.02 64 1008.4
20260507044717 49 293 2.0 4.0 0.00 0.11 0.02 63 1008.8